INMARSAT 4-F3

导读

INMARSAT 4-F3(海事卫星I-4 F3)是国际海事卫星组织(Inmarsat)第四代移动卫星通信系统的第三颗卫星,于2008年8月18日在哈萨克斯坦拜科努尔航天中心由质子M型火箭成功发射。由欧洲宇航防务集团Astrium建造,属于Eurostar 3000型号,发射重量约6吨。它的成功发射标志着Inmarsat完成全球无缝宽带移动卫星通信覆盖,可为航海、航空及偏远地区提供稳定的语音与宽带数据服务,助力应急通信与全球互联互通。

基本信息
目录编号:
33278
目录名称:
INMARSAT 4-F3
国际标识:
2008-039A
轨道中心:
EARTH
卫星名称:
INMARSAT 4-F3
卫星全名:
--
卫星状态:
在轨 (已飞行6507 天)
发射日期:
2008-08-18 UTC
国别 :
(Inmarsat)
星等 :
--
轨道信息
数据来源 国际轨道数据 AOE轨道数据
星历时间 2026-06-12T13:53:21+0800
12小时前
查看轨道信息
2026-06-12T13:00:00+0800
13小时前
查看轨道信息
半长轴 42164.756km 42164.644km
偏心率 0.0002839 0.0002809
轨道倾角 4.289° 4.290°
近地点辐角 53.402° 55.169°
升交点赤经 31.617° 31.625°
平近点角 165.885° 150.739°
近地点 35774.648km 35774.662km
远地点 35798.59km 35798.352km
周期 1436.098分钟 1436.092分钟
每日圈数 1.002717 1.002721
详细信息
使用方式:
暂无
2D轨道图
3D轨道图
轨道高度分析图
轨道倾角分析图
轨道综合分析图
查看轨道综合分析图